SAS2545 ESSA-EGPH

Flight info

Callsign SAS2545
Flight time 2h 5m
Altitude 38000
Route ARS N623 IBGAX DCT NIBNO DCT KLONN DCT ADN DCT NAXIL P600 PTH
Aircraft A20N/M-SDE2E3FGHIRWXY/LB1

Departure

Time 2026-04-26 17:40
Airport Stockholm-Arlanda Airport (ESSA)

Arrival

Time 2026-04-26 19:46
Airport Edinburgh Airport (EGPH)
Time Latitude Longitude Altitude Speed Heading
2026-04-26 16:38 59.65137 17.92796 115 ft 0 kts 191°
2026-04-26 17:17 59.65151 17.92801 113 ft 4 kts 191°
2026-04-26 17:18 59.65171 17.92809 115 ft 4 kts 191°
2026-04-26 17:18 59.65196 17.92818 112 ft 2 kts 189°
2026-04-26 17:18 59.65219 17.92828 112 ft 4 kts 195°
2026-04-26 17:18 59.65242 17.92831 115 ft 2 kts 151°
2026-04-26 17:19 59.65261 17.92810 113 ft 0 kts 152°
2026-04-26 17:24 59.65242 17.92829 113 ft 5 kts 161°
2026-04-26 17:24 59.65230 17.92802 113 ft 6 kts 246°
2026-04-26 17:25 59.65235 17.92734 115 ft 9 kts 288°
2026-04-26 17:25 59.65253 17.92627 114 ft 9 kts 288°
2026-04-26 17:25 59.65271 17.92507 115 ft 9 kts 278°
2026-04-26 17:25 59.65243 17.92408 113 ft 9 kts 200°
2026-04-26 17:26 59.65190 17.92384 114 ft 7 kts 189°
2026-04-26 17:26 59.65121 17.92356 111 ft 15 kts 192°
2026-04-26 17:26 59.65021 17.92319 114 ft 14 kts 191°
2026-04-26 17:26 59.64923 17.92282 113 ft 14 kts 190°
2026-04-26 17:27 59.64815 17.92244 115 ft 17 kts 189°
2026-04-26 17:27 59.64698 17.92200 115 ft 17 kts 191°
2026-04-26 17:27 59.64584 17.92159 114 ft 16 kts 190°
2026-04-26 17:27 59.64474 17.92121 116 ft 15 kts 190°
2026-04-26 17:28 59.64380 17.92088 117 ft 13 kts 190°
2026-04-26 17:28 59.64332 17.91965 115 ft 13 kts 259°
2026-04-26 17:28 59.64273 17.91882 116 ft 10 kts 189°
2026-04-26 17:28 59.64198 17.91855 116 ft 14 kts 191°
2026-04-26 17:29 59.64103 17.91820 117 ft 14 kts 190°
2026-04-26 17:29 59.64071 17.91808 117 ft 14 kts 191°
2026-04-26 17:29 59.63926 17.91756 112 ft 12 kts 190°
2026-04-26 17:29 59.63855 17.91720 111 ft 10 kts 207°
2026-04-26 17:30 59.63832 17.91690 109 ft 1 kts 218°
2026-04-26 17:30 59.63830 17.91687 109 ft 0 kts 217°
2026-04-26 17:31 59.63826 17.91680 109 ft 3 kts 217°
2026-04-26 17:31 59.63821 17.91672 110 ft 0 kts 219°
2026-04-26 17:33 59.63811 17.91656 110 ft 8 kts 219°
2026-04-26 17:33 59.63791 17.91623 110 ft 2 kts 220°
2026-04-26 17:33 59.63789 17.91621 110 ft 0 kts 220°
2026-04-26 17:34 59.63771 17.91590 109 ft 0 kts 220°
2026-04-26 17:38 59.63750 17.91554 109 ft 8 kts 221°
2026-04-26 17:39 59.63730 17.91432 112 ft 9 kts 282°
2026-04-26 17:39 59.63752 17.91339 111 ft 7 kts 333°
2026-04-26 17:39 59.63766 17.91338 113 ft 0 kts
2026-04-26 17:40 59.64036 17.91432 111 ft 75 kts 10°
2026-04-26 17:40 59.64488 17.91598 112 ft 120 kts 10°
2026-04-26 17:40 59.65745 17.92114 701 ft 138 kts
2026-04-26 17:40 59.66667 17.92478 1508 ft 136 kts
2026-04-26 17:41 59.67687 17.92664 1970 ft 159 kts 352°
2026-04-26 17:41 59.68740 17.91763 2419 ft 176 kts 320°
2026-04-26 17:41 59.69318 17.89565 3014 ft 191 kts 284°
2026-04-26 17:41 59.69317 17.86880 3702 ft 198 kts 271°
2026-04-26 17:42 59.69170 17.84139 4402 ft 202 kts 269°
2026-04-26 17:42 59.69198 17.81400 4870 ft 196 kts 291°
2026-04-26 17:42 59.69788 17.79004 4995 ft 193 kts 305°
2026-04-26 17:42 59.70528 17.76771 4998 ft 194 kts 307°
2026-04-26 17:43 59.71261 17.74492 4983 ft 204 kts 301°
2026-04-26 17:43 59.71709 17.71557 4972 ft 242 kts 278°
2026-04-26 17:43 59.71566 17.68132 4988 ft 255 kts 264°
2026-04-26 17:43 59.71191 17.64679 4987 ft 257 kts 262°
2026-04-26 17:44 59.70768 17.61231 4990 ft 257 kts 261°
2026-04-26 17:44 59.70340 17.57796 4983 ft 257 kts 261°
2026-04-26 17:44 59.69913 17.54359 4981 ft 257 kts 261°
2026-04-26 17:44 59.69488 17.50924 5005 ft 257 kts 261°
2026-04-26 17:45 59.69063 17.47487 4995 ft 257 kts 261°
2026-04-26 17:45 59.68639 17.44051 5001 ft 257 kts 261°
2026-04-26 17:45 59.68221 17.40669 5006 ft 257 kts 261°
2026-04-26 17:45 59.67796 17.37237 5005 ft 257 kts 261°
2026-04-26 17:46 59.67370 17.33809 5000 ft 257 kts 261°
2026-04-26 17:46 59.66943 17.30375 4998 ft 257 kts 261°
2026-04-26 17:46 59.66514 17.26927 5256 ft 260 kts 261°
2026-04-26 17:46 59.66079 17.23442 6192 ft 261 kts 261°
2026-04-26 17:47 59.65641 17.19953 7221 ft 262 kts 261°
2026-04-26 17:47 59.65344 17.17589 7883 ft 263 kts 261°
2026-04-26 17:47 59.64756 17.12908 9188 ft 266 kts 261°
2026-04-26 17:47 59.64306 17.09342 10167 ft 269 kts 261°
2026-04-26 17:48 59.63843 17.05654 10737 ft 287 kts 261°
2026-04-26 17:48 59.63344 17.01659 11124 ft 311 kts 261°
2026-04-26 17:48 59.62807 16.97406 11730 ft 326 kts 261°
2026-04-26 17:48 59.62245 16.93015 12582 ft 333 kts 262°
2026-04-26 17:49 59.61670 16.88537 13450 ft 339 kts 263°
2026-04-26 17:49 59.61085 16.83989 13992 ft 344 kts 263°
2026-04-26 17:49 59.60493 16.79408 14120 ft 345 kts 263°
2026-04-26 17:49 59.59898 16.74812 14130 ft 346 kts 263°
2026-04-26 17:50 59.59301 16.70201 14128 ft 347 kts 264°
2026-04-26 17:50 59.58905 16.65562 14128 ft 338 kts 274°
2026-04-26 17:50 59.58997 16.60986 14130 ft 331 kts 283°
2026-04-26 17:50 59.59322 16.56507 14130 ft 329 kts 287°
2026-04-26 17:51 59.59764 16.52087 14177 ft 329 kts 288°
2026-04-26 17:51 59.60260 16.47656 14703 ft 332 kts 289°
2026-04-26 17:51 59.60763 16.43206 15616 ft 332 kts 289°
2026-04-26 17:51 59.61252 16.38742 16513 ft 333 kts 288°
2026-04-26 17:52 59.61727 16.34246 17347 ft 336 kts 288°
2026-04-26 17:52 59.62193 16.29700 18161 ft 339 kts 288°
2026-04-26 17:52 59.62654 16.25098 18876 ft 343 kts 288°
2026-04-26 17:52 59.63136 16.20463 19563 ft 345 kts 289°
2026-04-26 17:53 59.63652 16.15812 20256 ft 348 kts 289°
2026-04-26 17:53 59.64190 16.11126 20946 ft 351 kts 290°
2026-04-26 17:53 59.64739 16.06410 21621 ft 354 kts 290°
2026-04-26 17:54 59.65847 15.96845 22926 ft 360 kts 289°
2026-04-26 17:54 59.66403 15.92002 23545 ft 363 kts 289°
2026-04-26 17:54 59.66960 15.87107 24039 ft 366 kts 289°
2026-04-26 17:54 59.67519 15.82169 24510 ft 369 kts 289°
2026-04-26 17:55 59.68079 15.77189 24993 ft 372 kts 289°
2026-04-26 17:55 59.68641 15.72170 25475 ft 375 kts 289°
2026-04-26 17:55 59.69204 15.67117 25956 ft 377 kts 289°
2026-04-26 17:55 59.69768 15.62037 26429 ft 379 kts 289°
2026-04-26 17:56 59.70334 15.56920 26888 ft 382 kts 289°
2026-04-26 17:56 59.71472 15.46583 27768 ft 386 kts 288°
2026-04-26 17:57 59.72249 15.35904 28620 ft 398 kts 281°
2026-04-26 17:57 59.72411 15.30407 29034 ft 401 kts 280°
2026-04-26 17:57 59.72526 15.24865 29439 ft 404 kts 279°
2026-04-26 17:57 59.72615 15.19276 29715 ft 408 kts 278°
2026-04-26 17:58 59.72838 15.02299 31002 ft 409 kts 278°
2026-04-26 17:59 59.72984 14.91076 31845 ft 407 kts 278°
2026-04-26 17:59 59.73057 14.85553 32235 ft 406 kts 278°
2026-04-26 17:59 59.73130 14.79964 32633 ft 405 kts 278°
2026-04-26 17:59 59.73201 14.74382 33018 ft 405 kts 278°
2026-04-26 18:00 59.73269 14.68811 33390 ft 404 kts 278°
2026-04-26 18:00 59.73335 14.63244 33778 ft 403 kts 278°
2026-04-26 18:00 59.73398 14.57695 34144 ft 403 kts 278°
2026-04-26 18:00 59.73459 14.52142 34334 ft 405 kts 277°
2026-04-26 18:01 59.73582 14.40871 34664 ft 410 kts 277°
2026-04-26 18:01 59.73636 14.35224 34982 ft 409 kts 277°
2026-04-26 18:01 59.73687 14.29588 35283 ft 409 kts 276°
2026-04-26 18:02 59.73735 14.23958 35551 ft 408 kts 276°
2026-04-26 18:02 59.73767 14.20156 35724 ft 408 kts 276°
2026-04-26 18:02 59.73826 14.12700 36064 ft 409 kts 276°
2026-04-26 18:02 59.73869 14.07066 36301 ft 409 kts 276°
2026-04-26 18:03 59.73909 14.01433 36539 ft 409 kts 276°
2026-04-26 18:03 59.73947 13.95801 36766 ft 409 kts 276°
2026-04-26 18:03 59.73982 13.90158 36994 ft 409 kts 276°
2026-04-26 18:03 59.74015 13.84517 37137 ft 411 kts 275°
2026-04-26 18:04 59.74046 13.78841 37258 ft 413 kts 275°
2026-04-26 18:04 59.74075 13.73142 37429 ft 414 kts 275°
2026-04-26 18:04 59.74102 13.67435 37626 ft 414 kts 275°
2026-04-26 18:05 59.74146 13.56022 38043 ft 414 kts 275°
2026-04-26 18:05 59.74164 13.50310 38185 ft 415 kts 275°
2026-04-26 18:05 59.74180 13.44576 38192 ft 416 kts 275°
2026-04-26 18:06 59.74203 13.33119 38188 ft 415 kts 275°
2026-04-26 18:06 59.74217 13.21688 38190 ft 415 kts 275°
2026-04-26 18:07 59.74222 13.10255 38192 ft 415 kts 275°
2026-04-26 18:07 59.74216 12.98816 38191 ft 415 kts 274°
2026-04-26 18:08 59.74201 12.87388 38192 ft 415 kts 274°
2026-04-26 18:08 59.74176 12.75947 38195 ft 415 kts 274°
2026-04-26 18:09 59.74141 12.64503 38189 ft 415 kts 274°
2026-04-26 18:09 59.74096 12.53067 38188 ft 415 kts 274°
2026-04-26 18:10 59.74041 12.41628 38188 ft 415 kts 274°
2026-04-26 18:10 59.73409 12.30183 38195 ft 421 kts 265°
2026-04-26 18:11 59.72319 12.18773 38194 ft 422 kts 264°
2026-04-26 18:11 59.71135 12.07383 38201 ft 422 kts 263°
2026-04-26 18:12 59.69938 11.95994 38197 ft 422 kts 263°
2026-04-26 18:12 59.68743 11.84612 38200 ft 422 kts 263°
2026-04-26 18:13 59.67546 11.73250 38211 ft 420 kts 263°
2026-04-26 18:13 59.66347 11.61943 38201 ft 420 kts 263°
2026-04-26 18:14 59.65147 11.50731 38207 ft 420 kts 263°
2026-04-26 18:14 59.63927 11.39433 38208 ft 420 kts 263°
2026-04-26 18:15 59.62698 11.28147 38209 ft 420 kts 263°
2026-04-26 18:15 59.61459 11.16870 38217 ft 420 kts 262°
2026-04-26 18:16 59.60209 11.05596 38221 ft 420 kts 262°
2026-04-26 18:16 59.58318 10.88708 38229 ft 420 kts 262°
2026-04-26 18:17 59.57045 10.77458 38231 ft 420 kts 262°
2026-04-26 18:17 59.55761 10.66211 38232 ft 420 kts 262°
2026-04-26 18:18 59.54468 10.54975 38230 ft 420 kts 262°
2026-04-26 18:18 59.53165 10.43748 38205 ft 420 kts 261°
2026-04-26 18:19 59.51862 10.32616 38230 ft 419 kts 261°
2026-04-26 18:19 59.50758 10.23246 38229 ft 419 kts 261°
2026-04-26 18:20 59.49432 10.12070 38199 ft 419 kts 261°
2026-04-26 18:20 59.48322 10.02791 38227 ft 419 kts 261°
2026-04-26 18:21 59.46753 9.89765 38225 ft 419 kts 261°
2026-04-26 18:21 59.45399 9.78627 38218 ft 419 kts 261°
2026-04-26 18:22 59.44036 9.67502 38222 ft 418 kts 260°
2026-04-26 18:22 59.42667 9.56414 38220 ft 417 kts 260°
2026-04-26 18:23 59.41290 9.45340 38219 ft 418 kts 260°
2026-04-26 18:23 59.39903 9.34271 38218 ft 418 kts 260°
2026-04-26 18:24 59.38506 9.23208 38219 ft 418 kts 260°
2026-04-26 18:24 59.37109 9.12226 38222 ft 418 kts 260°
2026-04-26 18:25 59.35682 9.01106 38229 ft 418 kts 259°
2026-04-26 18:25 59.34254 8.90045 38230 ft 419 kts 259°
2026-04-26 18:26 59.32816 8.78992 38239 ft 419 kts 259°
2026-04-26 18:26 59.31368 8.67939 38242 ft 419 kts 259°
2026-04-26 18:27 59.29913 8.56919 38234 ft 418 kts 259°
2026-04-26 18:27 59.28452 8.45936 38237 ft 417 kts 259°
2026-04-26 18:28 59.26991 8.35032 38231 ft 417 kts 258°
2026-04-26 18:28 59.25513 8.24063 38246 ft 418 kts 258°
2026-04-26 18:29 59.24013 8.13019 38247 ft 418 kts 258°
2026-04-26 18:29 59.22524 8.02129 38246 ft 418 kts 258°
2026-04-26 18:30 59.21005 7.91108 38246 ft 418 kts 258°
2026-04-26 18:30 59.19487 7.80167 38248 ft 418 kts 258°
2026-04-26 18:31 59.17961 7.69237 38242 ft 418 kts 258°
2026-04-26 18:31 59.16432 7.58366 38256 ft 419 kts 258°
2026-04-26 18:32 59.14879 7.47399 38252 ft 420 kts 258°
2026-04-26 18:32 59.13315 7.36433 38264 ft 420 kts 257°
2026-04-26 18:33 59.11742 7.25479 38264 ft 420 kts 257°
2026-04-26 18:33 59.10164 7.14560 38266 ft 419 kts 257°
2026-04-26 18:34 59.08579 7.03670 38265 ft 418 kts 257°
2026-04-26 18:34 59.06989 6.92822 38268 ft 416 kts 257°
2026-04-26 18:35 59.05399 6.82033 38271 ft 415 kts 257°
2026-04-26 18:35 59.03800 6.71257 38275 ft 415 kts 257°
2026-04-26 18:36 59.02192 6.60497 38280 ft 415 kts 257°
2026-04-26 18:36 59.00575 6.49735 38272 ft 415 kts 257°
2026-04-26 18:37 58.98947 6.38986 38268 ft 415 kts 257°
2026-04-26 18:37 58.97314 6.28259 38287 ft 414 kts 257°
2026-04-26 18:38 58.95676 6.17572 38283 ft 413 kts 257°
2026-04-26 18:38 58.94031 6.06904 38289 ft 413 kts 257°
2026-04-26 18:39 58.92377 5.96246 38292 ft 413 kts 256°
2026-04-26 18:39 58.90714 5.85595 38293 ft 413 kts 256°
2026-04-26 18:40 58.89042 5.74960 38288 ft 413 kts 256°
2026-04-26 18:40 58.87364 5.64351 38292 ft 413 kts 256°
2026-04-26 18:41 58.85679 5.53759 38299 ft 413 kts 256°
2026-04-26 18:41 58.83985 5.43173 38298 ft 413 kts 256°
2026-04-26 18:42 58.82281 5.32594 38300 ft 413 kts 256°
2026-04-26 18:42 58.80569 5.22026 38308 ft 413 kts 256°
2026-04-26 18:43 58.78848 5.11470 38309 ft 413 kts 256°
2026-04-26 18:43 58.77119 5.00923 38309 ft 413 kts 255°
2026-04-26 18:44 58.75379 4.90378 38312 ft 413 kts 255°
2026-04-26 18:44 58.73631 4.79844 38313 ft 413 kts 255°
2026-04-26 18:45 58.71887 4.69395 38329 ft 413 kts 255°
2026-04-26 18:45 58.70123 4.58886 38319 ft 413 kts 255°
2026-04-26 18:46 58.68349 4.48380 38327 ft 413 kts 255°
2026-04-26 18:46 58.66567 4.37890 38316 ft 413 kts 254°
2026-04-26 18:47 58.64775 4.27402 38332 ft 413 kts 254°
2026-04-26 18:47 58.62974 4.16926 38333 ft 413 kts 254°
2026-04-26 18:48 58.61165 4.06460 38328 ft 413 kts 254°
2026-04-26 18:48 58.59347 3.95999 38329 ft 413 kts 254°
2026-04-26 18:49 58.57533 3.85624 38330 ft 413 kts 254°
2026-04-26 18:49 58.55685 3.75115 38324 ft 413 kts 254°
2026-04-26 18:50 58.53854 3.64759 38324 ft 413 kts 253°
2026-04-26 18:50 58.52003 3.54349 38329 ft 413 kts 253°
2026-04-26 18:51 58.50144 3.43948 38329 ft 413 kts 253°
2026-04-26 18:51 58.48275 3.33555 38330 ft 413 kts 253°
2026-04-26 18:52 58.46398 3.23173 38325 ft 413 kts 253°
2026-04-26 18:52 58.44514 3.12807 38329 ft 413 kts 253°
2026-04-26 18:53 58.42620 3.02451 38328 ft 413 kts 252°
2026-04-26 18:53 58.40721 2.92123 38324 ft 412 kts 252°
2026-04-26 18:54 58.38815 2.81809 38326 ft 412 kts 252°
2026-04-26 18:54 58.36896 2.71513 38322 ft 412 kts 252°
2026-04-26 18:55 58.34977 2.61290 38322 ft 412 kts 252°
2026-04-26 18:55 58.33039 2.51021 38323 ft 413 kts 252°
2026-04-26 18:56 58.31090 2.40747 38319 ft 413 kts 252°
2026-04-26 18:56 58.29134 2.30483 38319 ft 413 kts 252°
2026-04-26 18:57 58.27500 2.21955 38318 ft 413 kts 252°
2026-04-26 18:57 58.25193 2.09974 38317 ft 413 kts 251°
2026-04-26 18:58 58.23211 1.99740 38316 ft 413 kts 251°
2026-04-26 18:58 58.21220 1.89514 38314 ft 413 kts 251°
2026-04-26 18:59 58.19222 1.79301 38315 ft 413 kts 251°
2026-04-26 18:59 58.17220 1.69129 38309 ft 411 kts 251°
2026-04-26 19:00 58.15215 1.58992 38315 ft 411 kts 251°
2026-04-26 19:00 58.13203 1.48868 38313 ft 411 kts 251°
2026-04-26 19:01 58.11184 1.38761 38307 ft 411 kts 251°
2026-04-26 19:01 58.09155 1.28651 38304 ft 411 kts 251°
2026-04-26 19:02 58.07132 1.18628 38304 ft 411 kts 250°
2026-04-26 19:02 58.05767 1.11896 38301 ft 410 kts 250°
2026-04-26 19:03 58.03042 0.98517 38300 ft 410 kts 250°
2026-04-26 19:03 58.00988 0.88489 38293 ft 410 kts 250°
2026-04-26 19:04 57.98924 0.78466 38295 ft 410 kts 250°
2026-04-26 19:04 57.96852 0.68452 38290 ft 410 kts 250°
2026-04-26 19:05 57.93731 0.53463 38289 ft 410 kts 250°
2026-04-26 19:06 57.91642 0.43487 38287 ft 409 kts 250°
2026-04-26 19:06 57.89549 0.33549 38290 ft 409 kts 250°
2026-04-26 19:07 57.87450 0.23626 38281 ft 409 kts 250°
2026-04-26 19:07 57.85343 0.13714 38278 ft 409 kts 250°
2026-04-26 19:08 57.83587 0.05485 38279 ft 409 kts 249°
2026-04-26 19:08 57.81465 -0.04407 38273 ft 409 kts 249°
2026-04-26 19:09 57.79333 -0.14301 38273 ft 409 kts 249°
2026-04-26 19:09 57.77193 -0.24184 38274 ft 409 kts 249°
2026-04-26 19:10 57.75044 -0.34062 38278 ft 409 kts 249°
2026-04-26 19:10 57.72888 -0.43925 38275 ft 409 kts 249°
2026-04-26 19:11 57.70725 -0.53774 38270 ft 410 kts 249°
2026-04-26 19:11 57.68552 -0.63622 38271 ft 410 kts 249°
2026-04-26 19:12 57.66373 -0.73453 38264 ft 410 kts 249°
2026-04-26 19:12 57.64184 -0.83277 38256 ft 409 kts 249°
2026-04-26 19:13 57.61993 -0.93069 38260 ft 409 kts 249°
2026-04-26 19:13 57.59797 -1.02833 38253 ft 409 kts 249°
2026-04-26 19:14 57.57607 -1.12533 38260 ft 409 kts 248°
2026-04-26 19:14 57.55393 -1.22286 38261 ft 409 kts 248°
2026-04-26 19:15 57.53174 -1.32024 38253 ft 409 kts 248°
2026-04-26 19:15 57.50946 -1.41751 38253 ft 409 kts 248°
2026-04-26 19:16 57.48711 -1.51464 38251 ft 409 kts 248°
2026-04-26 19:16 57.46469 -1.61168 38251 ft 409 kts 248°
2026-04-26 19:17 57.44218 -1.70861 38246 ft 409 kts 248°
2026-04-26 19:17 57.41960 -1.80544 38254 ft 409 kts 248°
2026-04-26 19:18 57.39691 -1.90228 38244 ft 409 kts 248°
2026-04-26 19:18 57.37416 -1.99898 37955 ft 409 kts 248°
2026-04-26 19:18 57.36276 -2.04724 37673 ft 408 kts 248°
2026-04-26 19:19 57.35138 -2.09531 37418 ft 406 kts 248°
2026-04-26 19:19 57.34004 -2.14311 37148 ft 405 kts 248°
2026-04-26 19:19 57.32870 -2.19083 36888 ft 404 kts 248°
2026-04-26 19:19 57.31576 -2.23691 36630 ft 405 kts 238°
2026-04-26 19:20 57.29808 -2.27744 36356 ft 406 kts 227°
2026-04-26 19:20 57.28412 -2.30034 36067 ft 405 kts 223°
2026-04-26 19:20 57.25426 -2.34317 35290 ft 407 kts 220°
2026-04-26 19:20 57.23113 -2.37352 34680 ft 408 kts 219°
2026-04-26 19:21 57.20801 -2.40289 34019 ft 409 kts 218°
2026-04-26 19:21 57.18417 -2.43293 33308 ft 409 kts 218°
2026-04-26 19:21 57.16107 -2.46212 32663 ft 408 kts 218°
2026-04-26 19:21 57.13744 -2.49216 31967 ft 407 kts 218°
2026-04-26 19:22 57.11451 -2.52148 31283 ft 407 kts 219°
2026-04-26 19:22 57.09101 -2.55166 30569 ft 407 kts 218°
2026-04-26 19:22 57.06813 -2.58107 29754 ft 407 kts 218°
2026-04-26 19:22 57.04496 -2.61084 28971 ft 406 kts 218°
2026-04-26 19:23 57.02189 -2.64045 28347 ft 402 kts 218°
2026-04-26 19:23 56.99916 -2.66953 27873 ft 395 kts 218°
2026-04-26 19:23 56.97673 -2.69817 27331 ft 391 kts 219°
2026-04-26 19:23 56.95451 -2.72652 26778 ft 387 kts 218°
2026-04-26 19:24 56.93253 -2.75449 26267 ft 383 kts 218°
2026-04-26 19:24 56.91073 -2.78220 25730 ft 380 kts 219°
2026-04-26 19:24 56.86762 -2.83691 24665 ft 375 kts 219°
2026-04-26 19:25 56.84627 -2.86400 24119 ft 373 kts 219°
2026-04-26 19:25 56.83220 -2.88183 23758 ft 372 kts 219°
2026-04-26 19:25 56.80387 -2.91768 22911 ft 368 kts 219°
2026-04-26 19:25 56.78295 -2.94410 22419 ft 364 kts 219°
2026-04-26 19:26 56.76222 -2.97020 21888 ft 361 kts 219°
2026-04-26 19:26 56.74166 -2.99604 21370 ft 358 kts 219°
2026-04-26 19:26 56.72121 -3.02170 20846 ft 355 kts 218°
2026-04-26 19:26 56.70090 -3.04716 20315 ft 353 kts 218°
2026-04-26 19:27 56.68069 -3.07246 19785 ft 352 kts 218°
2026-04-26 19:27 56.66057 -3.09763 19254 ft 351 kts 218°
2026-04-26 19:27 56.64049 -3.12273 18721 ft 350 kts 218°
2026-04-26 19:27 56.62041 -3.14780 18132 ft 350 kts 218°
2026-04-26 19:28 56.60042 -3.17271 17569 ft 348 kts 218°
2026-04-26 19:28 56.58053 -3.19746 17072 ft 345 kts 218°
2026-04-26 19:28 56.56079 -3.22200 16540 ft 343 kts 218°
2026-04-26 19:28 56.54116 -3.24638 16025 ft 341 kts 218°
2026-04-26 19:29 56.52162 -3.27062 15493 ft 340 kts 217°
2026-04-26 19:29 56.50212 -3.29477 14977 ft 339 kts 217°
2026-04-26 19:29 56.48269 -3.31880 14459 ft 338 kts 217°
2026-04-26 19:29 56.46358 -3.34242 13938 ft 337 kts 217°
2026-04-26 19:30 56.44424 -3.36643 13370 ft 336 kts 217°
2026-04-26 19:30 56.42525 -3.39079 12856 ft 334 kts 218°
2026-04-26 19:30 56.40645 -3.41516 12346 ft 331 kts 218°
2026-04-26 19:30 56.39409 -3.43119 12008 ft 330 kts 218°
2026-04-26 19:31 56.36922 -3.46342 11346 ft 327 kts 217°
2026-04-26 19:31 56.35075 -3.48731 10833 ft 326 kts 217°
2026-04-26 19:31 56.33262 -3.51072 10638 ft 313 kts 217°
2026-04-26 19:31 56.31540 -3.53291 10557 ft 297 kts 217°
2026-04-26 19:32 56.29924 -3.55370 10455 ft 283 kts 217°
2026-04-26 19:32 56.28355 -3.57389 10278 ft 273 kts 217°
2026-04-26 19:32 56.26811 -3.59376 9865 ft 272 kts 217°
2026-04-26 19:32 56.25281 -3.61340 9503 ft 268 kts 217°
2026-04-26 19:33 56.23773 -3.63277 9174 ft 265 kts 217°
2026-04-26 19:33 56.22273 -3.65197 8853 ft 264 kts 217°
2026-04-26 19:33 56.20785 -3.67106 8522 ft 262 kts 218°
2026-04-26 19:33 56.19431 -3.69251 8253 ft 255 kts 230°
2026-04-26 19:34 56.18336 -3.71652 8177 ft 242 kts 233°
2026-04-26 19:34 56.17328 -3.74023 7958 ft 238 kts 234°
2026-04-26 19:34 56.16329 -3.76398 7681 ft 238 kts 234°
2026-04-26 19:34 56.15324 -3.78784 7389 ft 240 kts 234°
2026-04-26 19:35 56.14317 -3.81171 7037 ft 240 kts 234°
2026-04-26 19:35 56.13311 -3.83554 6686 ft 240 kts 234°
2026-04-26 19:35 56.12305 -3.85936 6332 ft 239 kts 234°
2026-04-26 19:35 56.11301 -3.88299 6051 ft 237 kts 234°
2026-04-26 19:36 56.10306 -3.90637 5992 ft 237 kts 234°
2026-04-26 19:36 56.09643 -3.92193 5993 ft 237 kts 234°
2026-04-26 19:36 56.08246 -3.95232 5998 ft 244 kts 225°
2026-04-26 19:36 56.06853 -3.96944 6000 ft 244 kts 205°
2026-04-26 19:37 56.05190 -3.97506 6002 ft 247 kts 178°
2026-04-26 19:37 56.03524 -3.96686 6002 ft 252 kts 159°
2026-04-26 19:37 56.01938 -3.95330 6004 ft 253 kts 156°
2026-04-26 19:37 56.00371 -3.93879 5814 ft 254 kts 155°
2026-04-26 19:38 55.98811 -3.92426 5468 ft 253 kts 155°
2026-04-26 19:38 55.97253 -3.90983 5112 ft 252 kts 155°
2026-04-26 19:38 55.95701 -3.89554 4762 ft 250 kts 155°
2026-04-26 19:38 55.94160 -3.88140 4431 ft 248 kts 155°
2026-04-26 19:39 55.92644 -3.86758 4116 ft 246 kts 157°
2026-04-26 19:39 55.91033 -3.85939 4008 ft 239 kts 175°
2026-04-26 19:39 55.89393 -3.85666 3992 ft 231 kts 179°
2026-04-26 19:39 55.87841 -3.85467 3990 ft 217 kts 179°
2026-04-26 19:40 55.86360 -3.85170 3995 ft 215 kts 168°
2026-04-26 19:40 55.85059 -3.83850 4006 ft 221 kts 136°
2026-04-26 19:40 55.84333 -3.81456 3999 ft 224 kts 102°
2026-04-26 19:40 55.84197 -3.78679 4003 ft 227 kts 90°
2026-04-26 19:41 55.84259 -3.75872 3998 ft 227 kts 86°
2026-04-26 19:41 55.84367 -3.73067 3995 ft 227 kts 86°
2026-04-26 19:41 55.84440 -3.70259 3995 ft 228 kts 86°
2026-04-26 19:41 55.84592 -3.68416 3963 ft 228 kts 74°
2026-04-26 19:42 55.85501 -3.65031 3631 ft 227 kts 55°
2026-04-26 19:42 55.86357 -3.62698 3313 ft 227 kts 57°
2026-04-26 19:42 55.87168 -3.60313 2970 ft 224 kts 58°
2026-04-26 19:42 55.87951 -3.57983 2628 ft 213 kts 57°
2026-04-26 19:43 55.88685 -3.55829 2349 ft 194 kts 57°
2026-04-26 19:43 55.89355 -3.53861 2100 ft 178 kts 57°
2026-04-26 19:43 55.89970 -3.52051 1884 ft 163 kts 56°
2026-04-26 19:43 55.90533 -3.50396 1653 ft 149 kts 57°
2026-04-26 19:44 55.91053 -3.48864 1457 ft 142 kts 56°
2026-04-26 19:44 55.91559 -3.47376 1271 ft 140 kts 57°
2026-04-26 19:44 55.92073 -3.45890 1145 ft 141 kts 56°
2026-04-26 19:44 55.92584 -3.44405 938 ft 140 kts 59°
2026-04-26 19:45 55.93066 -3.42939 718 ft 134 kts 58°
2026-04-26 19:45 55.93553 -3.41550 537 ft 130 kts 58°
2026-04-26 19:45 55.94010 -3.40162 352 ft 128 kts 59°
2026-04-26 19:45 55.94471 -3.38804 205 ft 128 kts 58°
2026-04-26 19:46 55.94915 -3.37499 127 ft 114 kts 59°
2026-04-26 19:46 55.95240 -3.36545 115 ft 59 kts 58°
2026-04-26 19:46 55.95424 -3.35997 114 ft 47 kts 59°
2026-04-26 19:46 55.95551 -3.35619 112 ft 19 kts 59°
2026-04-26 19:47 55.95513 -3.35450 117 ft 15 kts 151°
2026-04-26 19:47 55.95471 -3.35410 117 ft 9 kts 155°
2026-04-26 19:47 55.95406 -3.35476 119 ft 10 kts 237°
2026-04-26 19:47 55.95370 -3.35586 119 ft 11 kts 239°
2026-04-26 19:48 55.95330 -3.35705 117 ft 11 kts 238°
2026-04-26 19:48 55.95287 -3.35830 117 ft 12 kts 238°
2026-04-26 19:48 55.95242 -3.35958 118 ft 12 kts 238°
2026-04-26 19:48 55.95197 -3.36090 119 ft 13 kts 238°
2026-04-26 19:49 55.95150 -3.36231 116 ft 14 kts 239°
2026-04-26 19:49 55.95101 -3.36375 118 ft 13 kts 232°
2026-04-26 19:49 55.95026 -3.36390 118 ft 10 kts 206°
2026-04-26 19:49 55.94988 -3.36476 115 ft 5 kts 233°
2026-04-26 19:50 55.94961 -3.36476 117 ft 4 kts 155°
2026-04-26 19:50 55.94938 -3.36449 116 ft 4 kts 148°
2026-04-26 19:50 55.94923 -3.36433 116 ft 1 kts 148°
2026-04-26 19:50 55.94922 -3.36432 116 ft 0 kts 148°